Salt Lake City, UT

2:27 PM MDT on September 20, 2017 (GMT -0600)
Salt Lake City International

Weather History for KSLC - October, 2013

Change the Weather History Date:

Sunday, October 27, 2013

  Actual Average Record
Temperature  
Mean Temperature 59 °F 49 °F  
Max Temperature 74 °F 60 °F 78 °F (2016)
Min Temperature 43 °F 38 °F 24 °F (1970)
Degree Days  
Heating Degree Days 6 16  
Month to date heating degree days 325 310  
Since 1 July heating degree days 380 399  
Cooling Degree Days 0 0  
Month to date cooling degree days 0 5  
Year to date cooling degree days 1768 1158  
Growing Degree Days 8 (Base 50)    
Moisture  
Dew Point 27 °F    
Average Humidity 37    
Maximum Humidity 58    
Minimum Humidity 15    
Precipitation  
Precipitation 0.00 in 0.05 in 0.82 in (1991)
Month to date precipitation 0.61 1.31  
Year to date precipitation 9.22 13.03  
Snow  
Snow 0.00 in 0.10 in 5.80 in (1971)
Month to date snowfall T 1.0  
Since 1 July snowfall T 1.0  
Snow Depth 0.00 in    
Sea Level Pressure  
Sea Level Pressure 29.80 in    
Wind  
Wind Speed 11 mph (SSE)    
Max Wind Speed 22 mph    
Max Gust Speed 29 mph    
Visibility 10 miles    
Events Rain    
T = Trace of Precipitation, MM = Missing Value Source: NWS Daily Summary

Daily Weather History Graph

Daily Weather History Graph

Search for Another Location

Airport or City:

Trip Planner

Search our weather history database for the weather conditions in past years. The results will help you decide how hot, cold, wet, or windy it might be!

Date:

Astronomy

Oct. 27, 2013 Rise Set
Actual Time 7:52 AM MDT 6:29 PM MDT
Civil Twilight 7:24 AM MDT 6:58 PM MDT
Nautical Twilight 6:52 AM MDT 7:30 PM MDT
Astronomical Twilight 6:20 AM MDT 8:02 PM MDT
Moon 12:51 AM MDT (10/27) 2:43 PM MDT (10/27)
Length of Visible Light 11h 33m
Length of Day
10h 37m
Last Quarter, 43% of the Moon is Illuminated
Oct 27
Last Quarter
Nov 3
New
Nov 9
First Quarter
Nov 17
Full
Nov 25
Last Quarter

Hourly Weather History & Observations

Time (MDT) Temp. Windchill Dew Point Humidity Pressure Visibility Wind Dir Wind Speed Gust Speed Precip Events Conditions
12:53 AM 50.0 °F - 28.9 °F 44% 30.09 in 10.0 mi SSE 11.5 mph - N/A   Clear
1:53 AM 46.9 °F - 30.0 °F 52% 30.07 in 10.0 mi SE 8.1 mph - N/A   Clear
2:53 AM 46.0 °F 43.1 °F 30.9 °F 56% 30.06 in 10.0 mi SSE 5.8 mph - N/A   Clear
3:53 AM 45.0 °F 41.2 °F 30.0 °F 56% 30.04 in 10.0 mi SE 6.9 mph - N/A   Clear
4:53 AM 46.9 °F - 30.0 °F 52% 30.00 in 10.0 mi SSE 10.4 mph - N/A   Clear
5:53 AM 45.0 °F 40.1 °F 30.9 °F 58% 30.00 in 10.0 mi ESE 9.2 mph - N/A   Clear
6:53 AM 46.9 °F - 28.9 °F 50% 29.99 in 10.0 mi ESE 10.4 mph - N/A   Clear
7:53 AM 48.9 °F - 28.9 °F 46% 29.98 in 10.0 mi SSE 12.7 mph - N/A   Partly Cloudy
8:53 AM 48.0 °F - 28.9 °F 48% 29.97 in 10.0 mi ESE 9.2 mph - N/A   Partly Cloudy
9:53 AM 55.0 °F - 28.0 °F 35% 29.96 in 10.0 mi SE 8.1 mph - N/A   Partly Cloudy
10:53 AM 59.0 °F - 28.0 °F 31% 29.91 in 10.0 mi SE 4.6 mph - N/A   Partly Cloudy
11:53 AM 64.9 °F - 26.1 °F 23% 29.87 in 10.0 mi SSE 6.9 mph - N/A   Partly Cloudy
12:53 PM 70.0 °F - 23.0 °F 17% 29.81 in 10.0 mi South 12.7 mph 23.0 mph N/A   Scattered Clouds
1:53 PM 72.0 °F - 23.0 °F 16% 29.73 in 10.0 mi South 20.7 mph 26.5 mph N/A   Scattered Clouds
2:53 PM 73.0 °F - 23.0 °F 15% 29.69 in 10.0 mi SSE 17.3 mph - N/A   Scattered Clouds
3:53 PM 70.0 °F - 23.0 °F 17% 29.66 in 10.0 mi South 20.7 mph - N/A   Mostly Cloudy
4:53 PM 72.0 °F - 23.0 °F 16% 29.62 in 10.0 mi South 16.1 mph - N/A   Mostly Cloudy
5:53 PM 70.0 °F - 19.9 °F 15% 29.60 in 10.0 mi SSE 13.8 mph - N/A   Mostly Cloudy
6:53 PM 64.0 °F - 23.0 °F 21% 29.59 in 10.0 mi SSE 8.1 mph - N/A   Mostly Cloudy
7:53 PM 62.1 °F - 25.0 °F 24% 29.56 in 10.0 mi SSE 5.8 mph - N/A   Mostly Cloudy
8:53 PM 60.1 °F - 27.0 °F 28% 29.55 in 10.0 mi SSE 6.9 mph - N/A   Mostly Cloudy
9:53 PM 66.0 °F - 26.1 °F 22% 29.52 in 10.0 mi SSW 10.4 mph - N/A   Overcast
10:15 PM 66.2 °F - 26.6 °F 23% 29.63 in 10.0 mi SSW 11.5 mph 29.9 mph 0.00 in Rain Light Rain
10:53 PM 62.1 °F - 28.0 °F 28% 29.51 in 10.0 mi SE 4.6 mph - 0.00 in   Mostly Cloudy
11:53 PM 60.1 °F - 30.0 °F 32% 29.49 in 10.0 mi South 3.5 mph - N/A   Mostly Cloudy